Location: Venise Bay
(45.0825°N, 73.1481°W)
Time: 19:33:12
(UTC-05:00)

X-37B - Visible Passes

Search period start: 26 January 2022 00:00
Search period end: 05 February 2022 00:00
Orbit: 334 x 337 km, 45.0° (Epoch: 11 January)

Date Brightness Start Highest point End Pass type
(mag) Time Alt. Az. Time Alt. Az. Time Alt. Az.
26 Jan 2.4 18:23:15 10° SSW 18:24:58 17° SSE 18:24:58 17° SSE visible
27 Jan 1.8 18:42:50 10° SW 18:44:42 29° SSW 18:44:42 29° SSW visible
28 Jan 2.4 17:28:42 10° SSW 17:30:39 17° SSE 17:32:37 10° ESE visible
28 Jan 2.5 19:02:58 10° WSW 19:04:24 26° WSW 19:04:24 26° WSW visible
29 Jan 1.4 17:48:15 10° SW 17:50:52 34° SSE 17:52:49 15° E visible
29 Jan 3.5 19:23:23 10° W 19:24:02 16° W 19:24:02 16° W visible
30 Jan 0.4 18:08:25 10° WSW 18:11:13 63° SSE 18:12:26 29° E visible
31 Jan 0.2 18:28:48 10° W 18:31:39 88° S 18:32:02 63° E visible
01 Feb 0.9 18:49:16 10° W 18:51:37 58° W 18:51:37 58° W visible
02 Feb 0.3 17:34:14 10° W 17:37:04 88° S 17:39:55 10° E visible
02 Feb 2.4 19:09:42 10° W 19:11:15 28° W 19:11:15 28° W visible
03 Feb 0.2 17:54:42 10° W 17:57:32 89° NE 17:59:40 16° E visible
03 Feb 3.5 19:30:13 10° W 19:30:54 15° W 19:30:54 15° W visible
04 Feb 0.4 18:15:09 10° W 18:17:59 69° SSW 18:19:23 26° ESE visible
